TimePST,TemperatureF,Dew PointF,Humidity,Sea Level PressureIn,VisibilityMPH,Wind Direction,Wind SpeedMPH,Gust SpeedMPH,PrecipitationIn,Events,Conditions,WindDirDegrees,DateUTC
12:53 AM,5.0,-0.9,76,30.52,10.0,South,13.8,-,N/A,,Clear,170,2013-01-20 08:53:00
1:53 AM,3.9,-2.0,76,30.53,10.0,South,12.7,-,N/A,,Clear,170,2013-01-20 09:53:00
2:53 AM,1.9,-2.9,80,30.53,10.0,South,10.4,-,N/A,,Clear,180,2013-01-20 10:53:00
3:53 AM,3.0,-2.9,76,30.53,10.0,South,11.5,-,N/A,,Clear,170,2013-01-20 11:53:00
4:53 AM,-0.0,-5.1,79,30.58,10.0,South,13.8,-,N/A,,Clear,170,2013-01-20 12:53:00
5:53 AM,-0.0,-5.1,79,30.67,10.0,South,11.5,-,N/A,,Clear,170,2013-01-20 13:53:00
6:53 AM,1.9,-4.0,76,30.66,10.0,South,13.8,-,N/A,,Clear,180,2013-01-20 14:53:00
7:53 AM,3.0,-4.0,73,30.67,10.0,South,12.7,-,N/A,,Clear,180,2013-01-20 15:53:00
8:53 AM,12.0,1.9,64,30.63,10.0,South,8.1,-,N/A,,Clear,170,2013-01-20 16:53:00
9:53 AM,19.9,7.0,57,30.62,10.0,North,-9999.0,-,N/A,,Clear,0,2013-01-20 17:53:00
11:53 AM,35.1,10.9,37,30.50,10.0,Calm,Calm,-,N/A,,Clear,0,2013-01-20 19:53:00
12:53 PM,36.0,12.0,37,30.48,10.0,ENE,3.5,-,N/A,,Clear,60,2013-01-20 20:53:00
1:53 PM,37.9,10.0,32,30.46,10.0,North,4.6,-,N/A,,Clear,350,2013-01-20 21:53:00
2:53 PM,36.0,12.0,37,30.48,10.0,Calm,Calm,-,N/A,,Clear,0,2013-01-20 22:53:00
3:53 PM,33.1,12.9,43,30.50,10.0,NW,4.6,-,N/A,,Clear,310,2013-01-20 23:53:00
4:53 PM,25.0,10.0,53,30.55,10.0,Calm,Calm,-,N/A,,Clear,0,2013-01-21 00:53:00
5:53 PM,12.0,6.1,77,30.62,10.0,South,5.8,-,N/A,,Clear,170,2013-01-21 01:53:00
6:30 PM,14.0,6.8,73,30.36,10.0,South,9.2,57.5,N/A,,Clear,170,2013-01-21 02:30:00
6:53 PM,10.9,5.0,77,30.62,10.0,North,-9999.0,-,N/A,,Clear,0,2013-01-21 02:53:00
7:53 PM,10.9,3.9,73,30.62,10.0,South,12.7,-,N/A,,Clear,170,2013-01-21 03:53:00
8:53 PM,9.0,1.9,73,30.59,10.0,South,12.7,-,N/A,,Clear,180,2013-01-21 04:53:00
9:53 PM,8.1,1.0,73,30.58,10.0,South,11.5,-,N/A,,Clear,170,2013-01-21 05:53:00
10:53 PM,7.0,-0.9,70,30.56,10.0,South,12.7,-,N/A,,Clear,170,2013-01-21 06:53:00
11:53 PM,5.0,-0.9,76,30.53,10.0,South,11.5,-,N/A,,Clear,190,2013-01-21 07:53:00